Waarnemingen

Advertentie
Mijn weer
Catania/Fontanarossa, Italië (16460): temperatuur & dauwpunt: 13.11.2017 18:00:00 - 19.11.2017 18:00:00 (CET)Catania/Fontanarossa, Italië (16460): windsnelheid: 13.11.2017 18:00:00 - 19.11.2017 18:00:00 (CET)Catania/Fontanarossa, Italië (16460): windrichting: 13.11.2017 18:00:00 - 19.11.2017 18:00:00 (CET)Catania/Fontanarossa, Italië (16460): luchtdruk: 13.11.2017 18:00:00 - 19.11.2017 18:00:00 (CET)Catania/Fontanarossa, Italië (16460): zicht: 13.11.2017 18:00:00 - 19.11.2017 18:00:00 (CET)Catania/Fontanarossa, Italië (16460): neerslag: 13.11.2017 18:00:00 - 19.11.2017 18:00:00 (CET)
Datum & Tijd tt [°C] td [°C] ff [km/u] ff [kn] dd ppp [hPa] vv [km] rr [mm]
19.11.2017 18:00:00 16,0 4,0 18 10 W - 10 -
19.11.2017 17:00:00 17,0 3,0 24 13 WNW - 10 -
19.11.2017 16:00:00 18,7 5,1 16 9 WNW 1013,5 10 0,0
19.11.2017 15:00:00 20,0 7,0 21 11 NNW - 10 -
19.11.2017 14:00:00 20,0 10,0 29 16 WNW - 10 -
19.11.2017 13:00:00 19,1 10,2 29 16 W 1013,5 10 -
19.11.2017 12:00:00 20,0 9,0 15 8 NW - 10 -
19.11.2017 11:00:00 19,0 9,0 22 12 W - 10 -
19.11.2017 10:00:00 17,1 10,4 16 9 W 1014,3 10 0,0
19.11.2017 09:00:00 13,0 9,0 16 9 WZW - 10 -
19.11.2017 08:00:00 11,0 8,0 16 9 WZW - 10 -
19.11.2017 07:00:00 10,2 7,7 16 9 W 1014,2 10 -
19.11.2017 06:00:00 10,0 8,0 15 8 W - 10 -
19.11.2017 05:00:00 10,0 8,0 16 9 W - 10 -
19.11.2017 04:00:00 10,8 8,6 18 10 W 1013,4 10 0,0
19.11.2017 03:00:00 10,0 9,0 13 7 W - 10 -
19.11.2017 02:00:00 11,0 9,0 16 9 W - 10 -
19.11.2017 01:00:00 10,4 8,7 11 6 W 1014,0 10 -
19.11.2017 00:00:00 12,0 9,0 15 8 W - 10 -
18.11.2017 23:00:00 12,0 9,0 13 7 W - 10 -
18.11.2017 22:00:00 12,1 9,1 8 4 WZW 1014,1 10 0,0
18.11.2017 21:00:00 12,0 10,0 9 5 WZW - 10 -
18.11.2017 20:00:00 14,0 11,0 8 4 WZW - 10 -
18.11.2017 19:00:00 13,9 10,8 9 5 WZW 1013,5 10 -
18.11.2017 18:00:00 17,0 11,0 4 2 Z - 10 -
18.11.2017 17:00:00 17,0 11,0 4 2 Z - 10 -
18.11.2017 16:00:00 17,9 11,1 8 4 OZO 1012,7 10 0,0
18.11.2017 15:00:00 19,0 12,0 13 7 OZO - 10 -
18.11.2017 14:00:00 19,0 13,0 13 7 O - 10 -
18.11.2017 13:00:00 18,8 12,3 11 6 O 1012,6 10 -
18.11.2017 12:00:00 - - - - - - - -
18.11.2017 11:00:00 19,0 10,0 4 2 - - 10 -
18.11.2017 10:00:00 17,3 11,9 2 1 - 1013,3 10 0,0
18.11.2017 09:00:00 14,0 11,0 9 5 ZW - 10 -
18.11.2017 08:00:00 10,0 9,0 9 5 WZW - 10 -
18.11.2017 07:00:00 7,8 7,3 8 4 W 1012,3 10 -
18.11.2017 06:00:00 9,0 9,0 4 2 - - 10 -
18.11.2017 05:00:00 9,0 9,0 9 5 ZW - 10 -
18.11.2017 04:00:00 8,1 7,7 5 3 W 1011,7 10 0,0
18.11.2017 03:00:00 10,0 9,0 5 3 W - 10 -
18.11.2017 02:00:00 9,0 8,0 9 5 WZW - 10 -
18.11.2017 01:00:00 10,5 9,4 11 6 ZZW 1011,9 10 -
18.11.2017 00:00:00 11,0 10,0 8 4 WZW - 10 -
17.11.2017 23:00:00 11,0 11,0 11 6 WZW - 10 -
17.11.2017 22:00:00 11,1 10,4 9 5 ZW 1011,8 10 0,0
17.11.2017 21:00:00 13,0 11,0 11 6 W - 10 -
17.11.2017 20:00:00 14,0 12,0 4 2 W - 10 -
17.11.2017 19:00:00 13,5 12,1 5 3 - 1011,0 10 -
17.11.2017 18:00:00 15,0 13,0 4 2 - - 10 -
17.11.2017 17:00:00 16,0 13,0 5 3 NNW - 8 -
17.11.2017 16:00:00 17,9 11,4 13 7 NO 1010,0 10 0,0
17.11.2017 15:00:00 20,0 11,0 8 4 ZZW - 10 -
17.11.2017 14:00:00 20,0 10,0 9 5 ZZW - 10 -
17.11.2017 13:00:00 19,7 11,3 16 9 WZW 1009,7 10 -
17.11.2017 12:00:00 19,0 10,0 13 7 W - 10 -
17.11.2017 11:00:00 18,0 11,0 13 7 ZW - 10 -
17.11.2017 10:00:00 16,9 10,0 9 5 W 1010,8 10 0,0
17.11.2017 09:00:00 16,0 11,0 13 7 WZW - 10 -
17.11.2017 08:00:00 14,0 10,0 18 10 W - 10 -
17.11.2017 07:00:00 11,8 9,2 15 8 W 1009,9 10 -
17.11.2017 06:00:00 12,0 9,0 11 6 NW - 10 -
17.11.2017 05:00:00 12,0 10,0 18 10 W - 10 -
17.11.2017 04:00:00 12,2 9,6 13 7 WNW 1009,6 10 0,0
17.11.2017 03:00:00 10,0 8,0 8 4 WNW - 10 -
17.11.2017 02:00:00 11,0 9,0 15 8 W - 10 -
17.11.2017 01:00:00 11,6 9,4 18 10 W 1010,2 10 -
17.11.2017 00:00:00 11,0 9,0 18 10 W - 10 -
16.11.2017 23:00:00 11,0 9,0 16 9 W - 10 -
16.11.2017 22:00:00 10,4 9,0 15 8 WZW 1010,2 10 0,0
16.11.2017 21:00:00 11,0 9,0 9 5 W - 10 -
16.11.2017 20:00:00 11,0 10,0 4 2 WZW - 10 -
16.11.2017 19:00:00 12,3 10,0 9 5 W 1010,1 10 -
16.11.2017 18:00:00 14,0 10,0 8 4 WZW - 10 -
16.11.2017 17:00:00 16,0 11,0 2 1 Z - 10 -
16.11.2017 16:00:00 16,3 10,1 9 5 O 1009,2 10 0,0
16.11.2017 15:00:00 17,0 10,0 13 7 O - 10 -
16.11.2017 14:00:00 18,0 10,0 8 4 ZO - 10 -
16.11.2017 13:00:00 17,7 8,3 5 3 W 1009,2 10 -
16.11.2017 12:00:00 17,0 11,0 11 6 WZW - 10 -
16.11.2017 11:00:00 16,0 10,0 16 9 ZW - 10 -
16.11.2017 10:00:00 15,6 11,1 13 7 WZW 1010,3 10 0,0
16.11.2017 09:00:00 12,0 10,0 11 6 ZW - 10 -
16.11.2017 08:00:00 8,0 7,0 8 4 W - 10 -
16.11.2017 07:00:00 8,6 7,3 15 8 W 1009,9 10 -
16.11.2017 06:00:00 8,0 7,0 9 5 W - 10 -
16.11.2017 05:00:00 9,0 9,0 9 5 WZW - 10 -
16.11.2017 04:00:00 10,9 9,5 9 5 WNW 1009,3 10 0,0
16.11.2017 03:00:00 13,0 10,0 11 6 ONO - 10 -
16.11.2017 02:00:00 13,0 10,0 11 6 NNO - 10 -
16.11.2017 01:00:00 12,6 9,7 15 8 NNO 1009,9 10 -
16.11.2017 00:00:00 13,0 11,0 21 11 NNO - 10 -
15.11.2017 23:00:00 14,0 10,0 15 8 NO - 10 -
15.11.2017 22:00:00 13,0 9,8 4 2 - 1010,6 10 0,0
15.11.2017 21:00:00 13,0 10,0 5 3 ZW - 10 -
15.11.2017 20:00:00 15,0 10,0 2 1 - - 10 -
15.11.2017 19:00:00 14,8 9,7 8 4 NNO 1010,4 10 -
15.11.2017 18:00:00 15,0 10,0 8 4 NO - 10 -
15.11.2017 17:00:00 14,0 10,0 9 5 O - 10 -
15.11.2017 16:00:00 15,8 9,5 9 5 O 1010,2 10 0,0
15.11.2017 15:00:00 17,0 10,0 13 7 O - 10 -
15.11.2017 14:00:00 17,0 10,0 9 5 O - 10 -
15.11.2017 13:00:00 15,5 9,0 11 6 OZO 1010,9 10 -
15.11.2017 12:00:00 17,0 10,0 5 3 OZO - 10 -
15.11.2017 11:00:00 16,0 8,0 4 2 - - 10 -
15.11.2017 10:00:00 15,4 8,8 2 1 - 1011,3 10 0,0
15.11.2017 09:00:00 13,0 10,0 4 2 - - 10 -
15.11.2017 08:00:00 8,0 7,0 8 4 W - 10 -
15.11.2017 07:00:00 6,8 6,4 9 5 WZW 1010,1 10 -
15.11.2017 06:00:00 7,0 6,0 8 4 WZW - 10 -
15.11.2017 05:00:00 7,0 6,0 8 4 ZW - 10 -
15.11.2017 04:00:00 7,4 6,7 11 6 W 1008,3 10 0,0
15.11.2017 03:00:00 - - - - - - - -
15.11.2017 02:00:00 8,0 7,0 9 5 WZW - 10 -
15.11.2017 01:00:00 8,3 7,1 11 6 WZW 1007,6 10 -
15.11.2017 00:00:00 10,0 7,0 9 5 ZZW - 10 -
14.11.2017 23:00:00 11,0 7,0 15 8 WNW - 10 -
14.11.2017 22:00:00 10,4 7,4 16 9 WNW 1007,2 10 0,0
14.11.2017 21:00:00 9,0 7,0 13 7 W - 10 -
14.11.2017 20:00:00 10,0 8,0 15 8 W - 10 -
14.11.2017 19:00:00 9,3 8,0 13 7 W 1005,6 10 -
14.11.2017 18:00:00 12,0 9,0 15 8 WZW - 10 -
14.11.2017 17:00:00 12,0 9,0 8 4 W - 10 -
14.11.2017 16:00:00 13,0 9,0 15 8 WZW - 10 -
14.11.2017 15:00:00 13,0 9,0 22 12 W - 10 -
14.11.2017 14:00:00 14,0 8,0 24 13 W - 10 -
14.11.2017 13:00:00 14,6 7,8 21 11 W 1003,7 10 -
14.11.2017 12:00:00 16,0 7,0 21 11 W - 10 -
14.11.2017 11:00:00 14,0 9,0 15 8 W - 10 -
14.11.2017 10:00:00 13,9 8,6 16 9 W 1004,2 10 0,0
14.11.2017 09:00:00 12,0 9,0 15 8 WZW - 10 -
14.11.2017 08:00:00 12,0 9,0 11 6 WZW - 10 -
14.11.2017 07:00:00 11,7 8,4 18 10 W 1003,5 10 -
14.11.2017 06:00:00 - - - - - - - -
14.11.2017 05:00:00 11,0 9,0 15 8 W - 10 -
14.11.2017 04:00:00 11,4 8,4 15 8 W 1003,2 10 0,0
14.11.2017 03:00:00 12,0 8,0 13 7 WZW - 10 -
14.11.2017 02:00:00 13,0 9,0 21 11 W - 10 -
14.11.2017 01:00:00 13,4 9,2 22 12 W 1003,8 10 -
14.11.2017 00:00:00 13,0 10,0 16 9 W - 10 -
13.11.2017 23:00:00 13,0 10,0 16 9 WZW - 10 -
13.11.2017 22:00:00 13,3 9,1 15 8 WZW 1003,8 10 0,0
13.11.2017 21:00:00 14,0 9,0 18 10 W - 10 -
13.11.2017 20:00:00 15,0 10,0 29 16 W - 10 -
13.11.2017 19:00:00 15,8 10,7 24 13 W 1002,4 10 -
13.11.2017 18:00:00 16,0 13,0 11 6 W - 10 -

tt = temperatuur
td = dauwpunt
ff = windsnelheid
dd = windrichting
ppp = luchtdruk
vv = zicht
rr = neerslag

Weerstations in de omgeving